Regional Weather Roundup
Issued by NWS Kansas City/Pleasant Hill, MO

Home | Current Version | Previous Version | Graphics & Text | Print | Product List | Glossary Off
Versions: 1 2 3 4 5 6 7 8 9 10 11 12 13 14 15 16 17 18 19 20 21 22 23 24 25 26 27 28 29 30 31 32 33 34 35 36 37 38 39 40 41 42 43 44 45 46 47 48 49 50

000
ASUS43 KEAX 270411
RWREAX

WEATHER ROUNDUP FOR EASTERN KANSAS AND NORTHWEST MISSOURI
NATIONAL WEATHER SERVICE KANSAS CITY/PLEASANT HILL MO
1100 PM CDT THU MAR 26 2015

KSZ040-057-103>105-MOZ028-029-037-043-270500-
...KANSAS CITY METROPOLITAN AREA...

CITY           SKY/WX    TMP DP  RH WIND       PRES   REMARKS
K.C. INTL      LGT RAIN  40  33  76 N17       30.14R WCI  31
K.C. DOWNTOWN  CLOUDY    45  31  58 N14G24    30.13R
LEES SUMMIT    CLOUDY    46  28  49 N16       30.12R
OLATHE - IXD   LGT RAIN  42  33  70 N10G23    30.14R
OLATHE - OJC   CLOUDY    46  27  47 N12       30.11R
LAWRENCE       LGT RAIN  39  35  86 N14       30.15R WCI  31

$$

MOZ001>008-011>017-020>025-030>033-038>040-044>046-053-054-270500-
...NORTHERN AND CENTRAL MISSOURI...

CITY           SKY/WX    TMP DP  RH WIND       PRES   REMARKS
ST. JOSEPH     CLOUDY    37  33  85 NE17      30.18R WCI  27
MOSBY          CLOUDY    41  34  75 N16       30.14R WCI  33
WARRENSBURG    CLOUDY    43  30  61 N3        30.09F
WHITEMAN AFB   MOCLDY    43  30  59 CALM      30.08S
CLINTON        CLOUDY    43  34  70 N3        30.10S
SEDALIA        CLOUDY    45  30  55 CALM      30.09F
WARSAW         NOT AVBL
MARSHALL       CLOUDY    46  34  61 N14G22    30.11R
CHILLICOTHE      N/A     39  30  70 N13G22    30.16R WCI  31
MOBERLY        CLOUDY    43  28  56 N14       30.12R
KIRKSVILLE     CLOUDY    40  27  59 N13       30.12R WCI  32

$$

MOZ041-047>049-056>058-063>065-088>090-097-270500-
...EASTERN AND SOUTHERN MISSOURI...

CITY           SKY/WX    TMP DP  RH WIND       PRES   REMARKS
ST. LOUIS INTL PTCLDY    41  27  57 W6        30.07S
SPIRIT OF STL  PTCLDY    34  29  82 W5        30.07S WCI  30
COLUMBIA       CLOUDY    42  30  62 NW6       30.08S
JEFFERSON CITY CLOUDY    41  31  67 CALM      30.09S
ROLLA          MOCLDY    40  28  62 MISG      30.06S
LEBANON        MOCLDY    41  32  70 NE5       30.06F
OSAGE BEACH    CLOUDY    43  28  56 NE3       30.08R
SPRINGFIELD    CLOUDY    42  30  62 NW3       30.06R
BRANSON        CLEAR     39  30  70 CALM      30.07F
NEVADA         CLOUDY    43  32  65 CALM      30.10R
JOPLIN         MOCLDY    45  30  55 CALM      30.08S
WEST PLAINS    CLEAR     38  27  64 MISG      30.06F

$$

IAZ060-094-KSZ022-034>040-054-083-096-NEZ052-066-093-270500-
...KANSAS...SOUTHEAST NEBRASKA AND IOWA...

CITY           SKY/WX    TMP DP  RH WIND       PRES   REMARKS
TOPEKA         LGT RAIN  38  35  89 NE15G26   30.15R WCI  29
MANHATTAN      LGT RAIN  39  36  89 NE20      30.15R WCI  29
EMPORIA        CLOUDY    43  40  89 N10       30.11R
CHANUTE        CLOUDY    47  36  65 VRB3      30.07R
WICHITA        PTCLDY    45  32  60 W7        30.03S
OMAHA          PTCLDY    33  31  92 N7        30.21R WCI  27
LINCOLN        PTCLDY    34  32  92 N12       30.23R WCI  25
FALLS CITY     CLOUDY    36  33  89 N9        30.18R WCI  29
LAMONI         CLOUDY    35  32  88 N8        30.14S WCI  29
DES MOINES     CLOUDY    35  22  58 N15       30.18R WCI  25

$$




USA.gov is the U.S. government's official web portal to all federal, state and local government web resources and services.